TimeCDT,TemperatureF,Dew PointF,Humidity,Sea Level PressureIn,VisibilityMPH,Wind Direction,Wind SpeedMPH,Gust SpeedMPH,PrecipitationIn,Events,Conditions,WindDirDegrees,DateUTC
12:53 AM,36.0,33.1,89,30.26,10.0,Calm,Calm,-,N/A,,Clear,0,2012-10-13 05:53:00
1:53 AM,34.0,30.9,89,30.23,10.0,Calm,Calm,-,N/A,,Partly Cloudy,0,2012-10-13 06:53:00
2:53 AM,41.0,37.0,86,30.19,10.0,Calm,Calm,-,0.00,Rain,Light Rain,0,2012-10-13 07:53:00
3:53 AM,41.0,37.9,89,30.21,4.0,NW,9.2,-,0.09,Rain,Rain,320,2012-10-13 08:53:00
4:53 AM,44.1,42.1,93,30.14,4.0,South,5.8,-,0.24,Rain,Rain,170,2012-10-13 09:53:00
5:53 AM,46.0,44.1,93,30.14,4.0,South,9.2,-,0.17,Rain,Rain,180,2012-10-13 10:53:00
6:06 AM,46.4,44.6,93,30.14,3.0,SSW,8.1,-,0.05,Rain,Rain,200,2012-10-13 11:06:00
6:23 AM,46.4,44.6,93,30.14,3.0,Calm,Calm,-,0.10,Rain,Heavy Rain,0,2012-10-13 11:23:00
6:53 AM,46.9,44.1,90,30.12,2.5,SSE,10.4,16.1,0.27,Rain,Heavy Rain,160,2012-10-13 11:53:00
7:02 AM,46.4,44.6,93,30.09,3.0,SSE,12.7,20.7,0.03,Rain,Rain,160,2012-10-13 12:02:00
7:17 AM,46.4,44.6,93,30.07,4.0,SSE,12.7,19.6,0.04,Rain,Light Rain,150,2012-10-13 12:17:00
7:34 AM,46.4,44.6,93,30.07,5.0,SSE,9.2,-,0.05,Rain,Light Rain,160,2012-10-13 12:34:00
7:53 AM,48.0,46.0,93,30.07,5.0,SSE,12.7,19.6,0.06,Rain,Light Rain,160,2012-10-13 12:53:00
8:12 AM,48.2,46.4,93,30.05,4.0,SSE,15.0,20.7,0.01,Rain,Light Rain,150,2012-10-13 13:12:00
8:43 AM,48.2,46.4,93,30.03,6.0,SSE,13.8,19.6,0.08,Rain,Light Rain,160,2012-10-13 13:43:00
8:53 AM,48.9,46.9,93,30.03,1.5,SSE,15.0,23.0,0.15,Rain,Heavy Rain,160,2012-10-13 13:53:00
9:02 AM,50.0,46.4,87,30.01,2.5,SSE,15.0,21.9,0.03,Rain,Rain,160,2012-10-13 14:02:00
9:09 AM,50.0,48.2,94,30.01,3.0,SSE,11.5,20.7,0.04,Rain,Rain,160,2012-10-13 14:09:00
9:18 AM,50.0,48.2,94,30.00,2.0,SSE,11.5,21.9,0.06,Rain,Rain,160,2012-10-13 14:18:00
9:38 AM,50.0,48.2,94,29.99,2.5,SSE,12.7,19.6,0.11,Rain,Light Rain,160,2012-10-13 14:38:00
9:53 AM,50.0,48.0,93,30.01,3.0,SSE,12.7,19.6,0.15,Rain-Thunderstorm,Light Rain,160,2012-10-13 14:53:00
10:13 AM,50.0,48.2,94,29.97,4.0,South,11.5,20.7,0.01,Rain,Light Rain,170,2012-10-13 15:13:00
10:53 AM,51.1,48.0,89,29.97,4.0,South,13.8,20.7,0.07,Rain,Light Rain,170,2012-10-13 15:53:00
11:29 AM,51.8,48.2,88,29.94,1.8,South,13.8,-,0.06,Rain,Heavy Rain,190,2012-10-13 16:29:00
11:45 AM,51.8,48.2,88,29.93,2.5,South,12.7,-,0.11,Rain,Light Rain,190,2012-10-13 16:45:00
11:53 AM,51.1,48.9,92,29.94,4.0,South,12.7,-,0.12,Rain,Light Rain,190,2012-10-13 16:53:00
12:22 PM,51.8,48.2,88,29.89,1.8,South,10.4,-,0.07,Rain,Heavy Rain,170,2012-10-13 17:22:00
12:33 PM,51.8,48.2,88,29.88,3.0,South,10.4,-,0.08,Rain,Light Rain,170,2012-10-13 17:33:00
12:53 PM,51.1,48.9,92,29.89,4.0,South,10.4,-,0.09,Rain,Light Rain,180,2012-10-13 17:53:00
1:24 PM,51.8,48.2,88,29.85,3.0,South,10.4,-,0.03,Rain,Light Rain,190,2012-10-13 18:24:00
1:53 PM,52.0,50.0,93,29.86,4.0,SSW,10.4,-,0.03,Rain,Light Rain,200,2012-10-13 18:53:00
3:53 PM,54.0,52.0,93,29.79,3.0,South,6.9,-,N/A,,Overcast,170,2012-10-13 20:53:00
4:10 PM,53.6,51.8,94,29.78,2.5,South,6.9,-,N/A,,Overcast,170,2012-10-13 21:10:00
4:53 PM,54.0,53.1,97,29.77,1.2,SSE,4.6,-,N/A,,Overcast,160,2012-10-13 21:53:00
5:25 PM,53.6,51.8,94,29.76,0.2,South,8.1,-,0.00,Fog,Fog,170,2012-10-13 22:25:00
5:53 PM,54.0,53.1,97,29.77,0.2,South,3.5,-,0.00,Fog,Fog,180,2012-10-13 22:53:00
6:50 PM,53.6,53.6,100,29.75,0.2,Calm,Calm,-,0.01,Fog,Fog,0,2012-10-13 23:50:00
7:09 PM,53.6,51.8,94,29.77,1.2,SSW,3.5,-,N/A,,Overcast,210,2012-10-14 00:09:00
7:53 PM,60.1,57.9,93,29.77,10.0,SW,11.5,-,0.00,Rain,Light Rain,230,2012-10-14 00:53:00
8:09 PM,60.8,57.2,88,29.77,10.0,SW,10.4,-,0.00,,Overcast,230,2012-10-14 01:09:00
9:53 PM,61.0,59.0,93,29.76,9.0,SSW,6.9,-,N/A,,Overcast,210,2012-10-14 02:53:00
10:07 PM,62.6,59.0,88,29.75,8.0,SW,6.9,-,N/A,,Overcast,220,2012-10-14 03:07:00